TimeEDT,TemperatureF,Dew PointF,Humidity,Sea Level PressureIn,VisibilityMPH,Wind Direction,Wind SpeedMPH,Gust SpeedMPH,PrecipitationIn,Events,Conditions,WindDirDegrees,DateUTC
12:53 AM,45.0,37.9,76,29.98,10.0,SW,4.6,-,N/A,,Clear,230,2012-10-07 04:53:00
1:53 AM,42.1,39.0,89,29.99,10.0,ESE,4.6,-,N/A,,Clear,120,2012-10-07 05:53:00
2:53 AM,43.0,37.9,82,30.00,10.0,SSW,3.5,-,N/A,,Clear,210,2012-10-07 06:53:00
3:53 AM,37.9,37.0,97,30.02,10.0,SSE,3.5,-,N/A,,Clear,160,2012-10-07 07:53:00
4:53 AM,39.0,37.9,96,30.04,10.0,Calm,Calm,-,N/A,,Clear,0,2012-10-07 08:53:00
5:53 AM,39.9,39.0,97,30.04,10.0,NE,3.5,-,N/A,,Clear,50,2012-10-07 09:53:00
6:53 AM,41.0,39.9,96,30.05,10.0,Calm,Calm,-,N/A,,Clear,0,2012-10-07 10:53:00
7:53 AM,42.1,41.0,96,30.06,10.0,Calm,Calm,-,N/A,,Mostly Cloudy,0,2012-10-07 11:53:00
8:53 AM,44.1,41.0,89,30.07,10.0,SSW,3.5,-,N/A,,Overcast,200,2012-10-07 12:53:00
9:53 AM,46.0,42.1,86,30.08,10.0,Calm,Calm,-,N/A,,Mostly Cloudy,0,2012-10-07 13:53:00
10:53 AM,48.9,42.1,77,30.08,10.0,South,5.8,-,N/A,,Partly Cloudy,190,2012-10-07 14:53:00
11:53 AM,51.1,41.0,68,30.08,10.0,SSW,4.6,-,N/A,,Partly Cloudy,200,2012-10-07 15:53:00
12:53 PM,52.0,39.0,61,30.08,10.0,South,6.9,-,N/A,,Overcast,190,2012-10-07 16:53:00
1:53 PM,53.1,39.9,61,30.05,10.0,South,9.2,-,N/A,,Overcast,180,2012-10-07 17:53:00
2:53 PM,53.1,39.0,59,30.04,10.0,South,9.2,-,N/A,,Overcast,190,2012-10-07 18:53:00
3:53 PM,54.0,39.0,57,30.02,10.0,SSW,5.8,-,N/A,,Mostly Cloudy,200,2012-10-07 19:53:00
4:53 PM,53.1,37.9,57,30.02,10.0,SW,5.8,-,N/A,,Overcast,230,2012-10-07 20:53:00
5:53 PM,52.0,37.9,59,30.01,10.0,Calm,Calm,-,N/A,,Scattered Clouds,0,2012-10-07 21:53:00
6:53 PM,50.0,39.9,68,30.02,10.0,South,3.5,-,N/A,,Mostly Cloudy,190,2012-10-07 22:53:00
7:53 PM,50.0,41.0,71,30.05,10.0,SW,5.8,-,N/A,,Overcast,220,2012-10-07 23:53:00
8:53 PM,46.0,46.0,100,30.06,2.5,Calm,Calm,-,0.05,Rain,Rain,0,2012-10-08 00:53:00
9:53 PM,46.0,45.0,96,30.07,10.0,Calm,Calm,-,0.03,Rain,Light Rain,0,2012-10-08 01:53:00
10:53 PM,46.0,44.1,93,30.08,10.0,Calm,Calm,-,0.02,Rain,Light Rain,0,2012-10-08 02:53:00
11:53 PM,45.0,44.1,97,30.09,10.0,Calm,Calm,-,0.04,Rain,Light Rain,0,2012-10-08 03:53:00